Location: ??????
(30.5519°N, 47.7720°E)
Time: 17:49:30
(UTC+00:00)

Milstar 3 - Pass Details

Date: 24 January 2021
Orbit: 1093 x 5152 km, 28.3° (Epoch: 11 February)

Event Time Altitude Azimuth Distance (km) Brightness Sun altitude
Rises 17:19:41 0° 247° (WSW) 4,793 6.9 -38.9°
Reaches altitude 10° 17:23:14 10° 244° (WSW) 3,458 5.9 -39.7°
Enters shadow 17:28:03 36° 227° (SW) 1,773 4.0 -40.7°
